Regional Weather Roundup
Issued by NWS

Home | Current Version | Previous Version | Text Only | Print | Product List | Glossary Off
Versions: 1 2 3 4 5 6 7 8 9 10 11 12 13 14 15 16 17 18 19 20 21 22 23 24 25 26 27 28 29 30 31 32 33 34 35 36 37 38 39 40 41 42 43 44 45 46 47 48 49 50

000
ASUS43 KOAX 280210
RWRNE

WEATHER ROUNDUP FOR NEBRASKA
NATIONAL WEATHER SERVICE OMAHA NE
900 PM CDT THU JUL 27 2017

NOTES: SATELLITE DATA IS BEING USED TO AUGMENT CLOUD COVER ABOVE
       12000 FEET.
       "FAIR" INDICATES FEW OR NO CLOUDS BELOW 12,000 FEET WITH NO
       SIGNIFICANT WEATHER AND/OR OBSTRUCTIONS TO VISIBILITY.


NEZ001>004-019>022-054>056-280300-
NEBRASKA PANHANDLE

CITY           SKY/WX    TMP DP  RH WIND       PRES   REMARKS
SCOTTSBLUFF    CLOUDY    73  65  75 E18       30.03S
GORDON         MOCLDY    72  52  49 E6        30.08R
KIMBALL        CLOUDY    67  60  76 SE12G18   30.08F
SIDNEY         PTCLDY    79  61  53 SE16      30.07F
$$

NEZ057>060-069>072-079>082-280300-
SOUTHWEST NEBRASKA

CITY           SKY/WX    TMP DP  RH WIND       PRES   REMARKS
NORTH PLATTE   CLEAR     75  57  53 E9        30.05R
IMPERIAL       MOCLDY    79  60  52 SE12      30.05S
LEXINGTON      CLEAR     74  60  60 E8        30.05F
MCCOOK         CLEAR     77  60  55 E9        30.05R
OGALLALA       PTCLDY    79  57  46 E9        30.03F
$$

NEZ005>010-023>029-035>040-094-280300-
NORTH CENTRAL NEBRASKA

CITY           SKY/WX    TMP DP  RH WIND       PRES   REMARKS
VALENTINE      CLOUDY    76  57  51 SE9       30.06S
AINSWORTH      CLOUDY    72  61  68 SE6       30.07F
BROKEN BOW     CLEAR     71  59  65 E8        30.06S
O`NEILL        CLOUDY    73  67  80 E3        30.07S
ORD            PTCLDY    73  61  65 E5        30.05S
THEDFORD       MOCLDY    76  58  52 E12       30.07F
$$

NEZ041-046>049-061>064-073>077-083>087-280300-
SOUTH CENTRAL NEBRASKA

CITY           SKY/WX    TMP DP  RH WIND       PRES   REMARKS
GRAND ISLAND   CLEAR     73  67  81 E6        30.06R
AURORA         CLEAR     71  68  90 NE5       30.05R
HASTINGS       CLEAR     73  64  73 E6        30.06R
HEBRON         PTCLDY    75  65  71 NE5       30.02R
HOLDREGE       CLEAR     71  65  81 E6        30.06S
KEARNEY        CLEAR     71  65  81 E7        30.06R
YORK           CLEAR     72  66  83 NE5       30.04R
$$

NEZ011>018-030>034-042>045-280300-
NORTHEAST NEBRASKA

CITY           SKY/WX    TMP DP  RH WIND       PRES   REMARKS
NORFOLK        PTCLDY    74  60  61 E3        30.04R
ALBION         CLEAR     73  66  80 NE3       30.06S
BLAIR          CLEAR     75  65  70 CALM      30.02R
COLUMBUS       CLEAR     71  66  84 NE3       30.05R
FREMONT        CLEAR     77  63  62 CALM      30.02S
TEKAMAH        CLEAR     75  66  73 N6        30.01R
WAYNE          CLEAR     73  70  93 CALM      30.04R
$$

NEZ050>053-065>068-078-088>093-280300-
SOUTHEAST NEBRASKA

CITY           SKY/WX    TMP DP  RH WIND       PRES   REMARKS
LINCOLN        CLEAR     74  65  73 NE7       30.01S
OMAHA EPPLEY   PTCLDY    76  67  73 N5        30.00R
BEATRICE       CLOUDY    75  66  74 NE3       30.00S
FALLS CITY     CLOUDY    75  67  76 N5        29.96S
NEBRASKA CITY  CLEAR     73  68  84 N6        29.99S
PLATTSMOUTH    CLEAR     74  65  71 CALM      30.01R
$$

NEZ044-045-051>053-067-280300-
OMAHA AREA

CITY           SKY/WX    TMP DP  RH WIND       PRES   REMARKS
OMAHA EPPLEY   PTCLDY    76  67  73 N5        30.00R
BLAIR          CLEAR     75  65  70 CALM      30.02R
FREMONT        CLEAR     77  63  62 CALM      30.02S
MILLARD        CLEAR     80  65  58 CALM      30.00R
OFFUTT AFB     CLEAR     76  64  67 CALM      29.99R
PLATTSMOUTH    CLEAR     74  65  71 CALM      30.01R
WAHOO          FAIR      71  67  86 N6        30.02R
$$




USA.gov is the U.S. government's official web portal to all federal, state and local government web resources and services.